Time,TemperatureF,DewpointF,PressureIn,WindDirection,WindDirectionDegrees,WindSpeedMPH,WindSpeedGustMPH,Humidity,HourlyPrecipIn,Conditions,Clouds,dailyrainin,SoftwareType,DateUTC
2013-03-06 00:06:00,33.2,31.0,30.09,NNW,339,0.0,0.0,92,0.00,,,0.00,weatherlink.com 1.10,2013-03-06 05:06:00,
2013-03-06 00:21:00,33.3,31.0,30.09,NNW,339,0.0,1.0,92,0.00,,,0.00,weatherlink.com 1.10,2013-03-06 05:21:00,
2013-03-06 00:36:00,33.3,31.0,30.09,NNW,339,0.0,0.0,92,0.00,,,0.00,weatherlink.com 1.10,2013-03-06 05:36:00,
2013-03-06 00:51:00,33.6,32.0,30.09,NNW,335,0.0,1.0,92,0.00,,,0.00,weatherlink.com 1.10,2013-03-06 05:51:00,
2013-03-06 01:07:00,34.2,32.0,30.09,WNW,284,0.0,1.0,90,0.00,,,0.00,weatherlink.com 1.10,2013-03-06 06:07:00,
2013-03-06 01:37:00,34.4,32.0,30.09,NNW,342,1.0,1.0,90,0.00,,,0.00,weatherlink.com 1.10,2013-03-06 06:37:00,
2013-03-06 01:52:00,34.5,32.0,30.09,NW,322,1.0,4.0,90,0.00,,,0.00,weatherlink.com 1.10,2013-03-06 06:52:00,
2013-03-06 02:07:00,34.2,32.0,30.09,NW,316,0.0,3.0,91,0.00,,,0.00,weatherlink.com 1.10,2013-03-06 07:07:00,
2013-03-06 02:22:00,34.1,32.0,30.08,West,266,0.0,1.0,91,0.00,,,0.00,weatherlink.com 1.10,2013-03-06 07:22:00,
2013-03-06 02:37:00,34.1,32.0,30.09,NE,46,1.0,3.0,91,0.00,,,0.00,weatherlink.com 1.10,2013-03-06 07:37:00,
2013-03-06 02:52:00,34.0,32.0,30.09,WNW,302,0.0,2.0,91,0.00,,,0.00,weatherlink.com 1.10,2013-03-06 07:52:00,
2013-03-06 03:07:00,34.0,32.0,30.08,SW,227,1.0,3.0,91,0.00,,,0.00,weatherlink.com 1.10,2013-03-06 08:07:00,
2013-03-06 03:22:00,33.9,32.0,30.09,West,262,1.0,4.0,91,0.00,,,0.00,weatherlink.com 1.10,2013-03-06 08:22:00,
2013-03-06 03:37:00,33.8,32.0,30.09,NNE,14,1.0,3.0,91,0.00,,,0.00,weatherlink.com 1.10,2013-03-06 08:37:00,
2013-03-06 04:07:00,33.5,32.0,30.10,West,269,0.0,2.0,92,0.00,,,0.00,weatherlink.com 1.10,2013-03-06 09:07:00,
2013-03-06 04:22:00,33.5,31.0,30.11,WNW,293,1.0,3.0,91,0.00,,,0.00,weatherlink.com 1.10,2013-03-06 09:22:00,
2013-03-06 04:37:00,33.5,31.0,30.11,West,269,1.0,4.0,91,0.00,,,0.00,weatherlink.com 1.10,2013-03-06 09:37:00,
2013-03-06 04:52:00,33.4,31.0,30.11,WSW,238,2.0,4.0,91,0.00,,,0.00,weatherlink.com 1.10,2013-03-06 09:52:00,
2013-03-06 05:07:00,33.3,31.0,30.11,NNW,345,0.0,3.0,92,0.00,,,0.00,weatherlink.com 1.10,2013-03-06 10:07:00,
2013-03-06 05:22:00,33.1,31.0,30.11,WNW,290,0.0,3.0,92,0.00,,,0.00,weatherlink.com 1.10,2013-03-06 10:22:00,
2013-03-06 05:37:00,32.9,31.0,30.11,NNW,335,1.0,2.0,93,0.00,,,0.00,weatherlink.com 1.10,2013-03-06 10:37:00,
2013-03-06 05:52:00,32.9,31.0,30.11,North,356,0.0,3.0,94,0.00,,,0.00,weatherlink.com 1.10,2013-03-06 10:52:00,
2013-03-06 06:07:00,33.0,32.0,30.11,NNW,330,1.0,3.0,94,0.00,,,0.00,weatherlink.com 1.10,2013-03-06 11:07:00,
2013-03-06 06:22:00,33.0,32.0,30.11,NNW,331,2.0,4.0,94,0.00,,,0.00,weatherlink.com 1.10,2013-03-06 11:22:00,
2013-03-06 06:37:00,32.8,31.0,30.11,West,277,0.0,3.0,94,0.00,,,0.00,weatherlink.com 1.10,2013-03-06 11:37:00,
2013-03-06 06:52:00,32.8,31.0,30.12,NNW,345,2.0,5.0,94,0.00,,,0.00,weatherlink.com 1.10,2013-03-06 11:52:00,
2013-03-06 07:07:00,32.9,31.0,30.12,NNW,341,1.0,8.0,94,0.00,,,0.00,weatherlink.com 1.10,2013-03-06 12:07:00,
2013-03-06 07:22:00,32.9,31.0,30.13,North,350,2.0,3.0,94,0.00,,,0.00,weatherlink.com 1.10,2013-03-06 12:22:00,
2013-03-06 07:37:00,33.1,32.0,30.14,North,351,4.0,5.0,94,0.00,,,0.00,weatherlink.com 1.10,2013-03-06 12:37:00,
2013-03-06 07:52:00,33.2,32.0,30.15,SW,227,2.0,4.0,94,0.01,,,0.01,weatherlink.com 1.10,2013-03-06 12:52:00,
2013-03-06 08:07:00,33.2,31.0,30.16,NNE,22,1.0,10.0,93,0.01,,,0.01,weatherlink.com 1.10,2013-03-06 13:07:00,
2013-03-06 08:22:00,33.5,32.0,30.16,WSW,238,1.0,4.0,93,0.01,,,0.01,weatherlink.com 1.10,2013-03-06 13:22:00,
2013-03-06 08:37:00,33.5,32.0,30.16,NE,51,0.0,4.0,93,0.02,,,0.02,weatherlink.com 1.10,2013-03-06 13:37:00,
2013-03-06 08:52:00,33.6,32.0,30.15,NNE,30,1.0,3.0,93,0.01,,,0.02,weatherlink.com 1.10,2013-03-06 13:52:00,
2013-03-06 09:07:00,33.8,32.0,30.15,WNW,297,0.0,7.0,92,0.01,,,0.02,weatherlink.com 1.10,2013-03-06 14:07:00,
2013-03-06 09:22:00,34.0,32.0,30.14,ENE,77,3.0,5.0,92,0.01,,,0.02,weatherlink.com 1.10,2013-03-06 14:22:00,
2013-03-06 09:37:00,34.4,32.0,30.15,ENE,72,1.0,5.0,90,0.00,,,0.02,weatherlink.com 1.10,2013-03-06 14:37:00,
2013-03-06 09:52:00,34.5,32.0,30.15,SW,217,1.0,4.0,90,0.00,,,0.02,weatherlink.com 1.10,2013-03-06 14:52:00,
2013-03-06 10:07:00,34.6,31.0,30.15,NNW,347,1.0,4.0,88,0.00,,,0.02,weatherlink.com 1.10,2013-03-06 15:07:00,
2013-03-06 10:22:00,35.0,32.0,30.15,West,274,0.0,5.0,87,0.00,,,0.02,weatherlink.com 1.10,2013-03-06 15:22:00,
2013-03-06 10:37:00,36.1,31.0,30.15,SSW,205,1.0,4.0,83,0.00,,,0.02,weatherlink.com 1.10,2013-03-06 15:37:00,
2013-03-06 10:53:00,36.1,31.0,30.15,NE,50,2.0,5.0,80,0.00,,,0.02,weatherlink.com 1.10,2013-03-06 15:53:00,
2013-03-06 11:08:00,36.1,31.0,30.15,South,186,3.0,5.0,80,0.00,,,0.02,weatherlink.com 1.10,2013-03-06 16:08:00,
2013-03-06 11:23:00,36.0,30.0,30.14,South,184,1.0,3.0,78,0.00,,,0.02,weatherlink.com 1.10,2013-03-06 16:23:00,
2013-03-06 11:38:00,35.9,30.0,30.15,West,274,2.0,13.0,78,0.00,,,0.02,weatherlink.com 1.10,2013-03-06 16:38:00,
2013-03-06 11:53:00,36.2,29.0,30.14,NNE,18,0.0,5.0,76,0.00,,,0.02,weatherlink.com 1.10,2013-03-06 16:53:00,
2013-03-06 12:08:00,36.3,29.0,30.14,East,86,0.0,9.0,76,0.00,,,0.02,weatherlink.com 1.10,2013-03-06 17:08:00,
2013-03-06 12:23:00,36.4,29.0,30.13,ENE,72,1.0,6.0,75,0.00,,,0.02,weatherlink.com 1.10,2013-03-06 17:23:00,
2013-03-06 12:38:00,36.6,29.0,30.13,South,179,0.0,9.0,75,0.00,,,0.02,weatherlink.com 1.10,2013-03-06 17:38:00,
2013-03-06 12:53:00,36.7,29.0,30.13,North,9,2.0,8.0,75,0.00,,,0.02,weatherlink.com 1.10,2013-03-06 17:53:00,
2013-03-06 13:08:00,37.0,29.0,30.13,ENE,77,0.0,8.0,73,0.00,,,0.02,weatherlink.com 1.10,2013-03-06 18:08:00,
2013-03-06 13:23:00,36.8,29.0,30.13,ESE,115,0.0,6.0,73,0.00,,,0.02,weatherlink.com 1.10,2013-03-06 18:23:00,
2013-03-06 13:38:00,36.7,29.0,30.13,NW,319,2.0,7.0,74,0.00,,,0.02,weatherlink.com 1.10,2013-03-06 18:38:00,
2013-03-06 13:53:00,35.7,30.0,30.13,WNW,295,3.0,7.0,79,0.00,,,0.02,weatherlink.com 1.10,2013-03-06 18:53:00,
2013-03-06 14:08:00,35.5,31.0,30.14,ENE,59,1.0,6.0,82,0.00,,,0.02,weatherlink.com 1.10,2013-03-06 19:08:00,
2013-03-06 14:23:00,35.3,31.0,30.13,North,360,0.0,4.0,83,0.00,,,0.02,weatherlink.com 1.10,2013-03-06 19:23:00,
2013-03-06 14:38:00,34.7,30.0,30.14,ENE,77,3.0,6.0,83,0.00,,,0.02,weatherlink.com 1.10,2013-03-06 19:38:00,
2013-03-06 14:53:00,35.5,30.0,30.14,WSW,242,4.0,5.0,80,0.00,,,0.02,weatherlink.com 1.10,2013-03-06 19:53:00,
2013-03-06 15:08:00,35.3,29.0,30.14,North,349,1.0,6.0,79,0.00,,,0.02,weatherlink.com 1.10,2013-03-06 20:08:00,
2013-03-06 15:23:00,35.7,29.0,30.14,WNW,292,1.0,8.0,75,0.00,,,0.02,weatherlink.com 1.10,2013-03-06 20:23:00,
2013-03-06 15:38:00,35.4,28.0,30.14,NNW,345,3.0,6.0,75,0.00,,,0.02,weatherlink.com 1.10,2013-03-06 20:38:00,
2013-03-06 15:53:00,34.9,28.0,30.14,NW,321,4.0,7.0,77,0.00,,,0.02,weatherlink.com 1.10,2013-03-06 20:53:00,
2013-03-06 16:08:00,34.7,28.0,30.14,WNW,298,1.0,7.0,77,0.00,,,0.02,weatherlink.com 1.10,2013-03-06 21:08:00,
2013-03-06 16:23:00,34.4,28.0,30.14,West,263,3.0,6.0,76,0.01,,,0.03,weatherlink.com 1.10,2013-03-06 21:23:00,
2013-03-06 16:38:00,34.0,28.0,30.15,NW,321,1.0,9.0,78,0.01,,,0.03,weatherlink.com 1.10,2013-03-06 21:38:00,
2013-03-06 16:53:00,33.5,28.0,30.16,SE,146,0.0,5.0,81,0.01,,,0.03,weatherlink.com 1.10,2013-03-06 21:53:00,
2013-03-06 17:08:00,33.2,29.0,30.16,North,360,1.0,8.0,83,0.01,,,0.03,weatherlink.com 1.10,2013-03-06 22:08:00,
2013-03-06 17:23:00,33.0,28.0,30.16,West,276,2.0,7.0,83,0.00,,,0.03,weatherlink.com 1.10,2013-03-06 22:23:00,
2013-03-06 17:38:00,32.8,29.0,30.17,SSW,208,0.0,5.0,84,0.00,,,0.03,weatherlink.com 1.10,2013-03-06 22:38:00,
2013-03-06 17:53:00,32.5,29.0,30.17,NE,44,2.0,7.0,85,0.00,,,0.03,weatherlink.com 1.10,2013-03-06 22:53:00,
2013-03-06 18:08:00,32.3,29.0,30.18,NNW,339,2.0,4.0,86,0.00,,,0.03,weatherlink.com 1.10,2013-03-06 23:08:00,
2013-03-06 18:23:00,31.9,29.0,30.18,SW,214,0.0,5.0,88,0.00,,,0.03,weatherlink.com 1.10,2013-03-06 23:23:00,
2013-03-06 18:38:00,31.7,29.0,30.18,WNW,287,1.0,3.0,89,0.00,,,0.03,weatherlink.com 1.10,2013-03-06 23:38:00,
2013-03-06 18:53:00,31.6,29.0,30.18,SW,232,1.0,7.0,89,0.00,,,0.03,weatherlink.com 1.10,2013-03-06 23:53:00,
2013-03-06 19:08:00,31.6,29.0,30.17,NNW,340,3.0,4.0,88,0.00,,,0.03,weatherlink.com 1.10,2013-03-07 00:08:00,
2013-03-06 19:23:00,31.5,28.0,30.16,SW,234,0.0,3.0,88,0.00,,,0.03,weatherlink.com 1.10,2013-03-07 00:23:00,
2013-03-06 19:38:00,31.6,29.0,30.16,WNW,302,0.0,3.0,88,0.00,,,0.03,weatherlink.com 1.10,2013-03-07 00:38:00,
2013-03-06 19:53:00,31.8,28.0,30.16,NW,325,1.0,5.0,86,0.00,,,0.03,weatherlink.com 1.10,2013-03-07 00:53:00,
2013-03-06 20:08:00,32.0,28.0,30.17,NNE,22,0.0,4.0,84,0.00,,,0.03,weatherlink.com 1.10,2013-03-07 01:08:00,
2013-03-06 20:23:00,32.1,28.0,30.17,ENE,77,1.0,7.0,83,0.00,,,0.03,weatherlink.com 1.10,2013-03-07 01:23:00,
2013-03-06 20:38:00,32.2,28.0,30.16,SSW,200,1.0,4.0,83,0.00,,,0.03,weatherlink.com 1.10,2013-03-07 01:38:00,
2013-03-06 20:53:00,32.2,27.0,30.16,WNW,287,2.0,4.0,81,0.00,,,0.03,weatherlink.com 1.10,2013-03-07 01:53:00,
2013-03-06 21:08:00,32.2,27.0,30.15,East,82,0.0,6.0,81,0.00,,,0.03,weatherlink.com 1.10,2013-03-07 02:08:00,
2013-03-06 21:23:00,32.1,27.0,30.15,NW,304,0.0,7.0,82,0.00,,,0.03,weatherlink.com 1.10,2013-03-07 02:23:00,
2013-03-06 21:38:00,32.1,27.0,30.15,West,273,0.0,4.0,81,0.00,,,0.03,weatherlink.com 1.10,2013-03-07 02:38:00,
2013-03-06 21:53:00,32.1,28.0,30.14,WSW,243,0.0,7.0,83,0.00,,,0.03,weatherlink.com 1.10,2013-03-07 02:53:00,
2013-03-06 22:08:00,32.0,27.0,30.14,NE,34,0.0,4.0,82,0.00,,,0.03,weatherlink.com 1.10,2013-03-07 03:08:00,
2013-03-06 22:23:00,31.8,27.0,30.14,NW,313,0.0,6.0,83,0.00,,,0.03,weatherlink.com 1.10,2013-03-07 03:23:00,
2013-03-06 22:38:00,31.6,27.0,30.14,WSW,242,1.0,5.0,82,0.00,,,0.03,weatherlink.com 1.10,2013-03-07 03:38:00,
2013-03-06 22:53:00,31.5,27.0,30.14,SE,136,0.0,3.0,82,0.00,,,0.03,weatherlink.com 1.10,2013-03-07 03:53:00,
2013-03-06 23:08:00,31.5,27.0,30.14,NNE,26,2.0,6.0,82,0.00,,,0.03,weatherlink.com 1.10,2013-03-07 04:08:00,
2013-03-06 23:23:00,31.4,27.0,30.14,NNE,30,1.0,4.0,83,0.00,,,0.03,weatherlink.com 1.10,2013-03-07 04:23:00,
2013-03-06 23:38:00,31.2,27.0,30.14,NNW,335,4.0,8.0,84,0.00,,,0.03,weatherlink.com 1.10,2013-03-07 04:38:00,
2013-03-06 23:53:00,31.0,27.0,30.14,NW,310,0.0,3.0,85,0.00,,,0.03,weatherlink.com 1.10,2013-03-07 04:53:00,